IQ1ZW Weather Reports


time (UTC)temp
F
wind
direction
speed
knots
gust
knots
rain 1hr
in
rain 24hr
in
rain mn
in
humidity
%
barometer
mb
20260506203735 60 180 5.2 13.0 0.00 0.49 0.00 83 1006.8
20260506203239 60 188 10.4 11.3 0.00 0.49 0.00 83 1006.8
20260506202733 60 150 7.0 11.3 0.00 0.49 0.00 83 1006.7
20260506202232 60 210 5.2 12.2 0.00 0.49 0.00 83 1006.7
20260506201733 60 184 3.5 12.2 0.00 0.49 0.00 83 1006.8
20260506201232 60 309 3.5 8.7 0.00 0.49 0.00 83 1006.7
20260506200733 60 150 5.2 11.3 0.00 0.49 0.00 83 1006.6
20260506200232 60 149 7.8 9.6 0.00 0.49 0.00 83 1006.6
20260506195738 60 165 8.7 10.4 0.00 0.49 0.00 83 1006.4
20260506195233 60 153 5.2 12.2 0.00 0.49 0.00 83 1006.4
20260506194733 60 122 3.5 9.6 0.00 0.49 0.00 83 1006.4
20260506194232 60 143 4.3 9.6 0.00 0.49 0.00 83 1006.3
20260506193736 60 175 6.1 13.9 0.00 0.49 0.00 83 1006.3
20260506193233 60 165 9.6 13.9 0.00 0.49 0.00 83 1006.3
20260506192733 60 182 4.3 10.4 0.00 0.49 0.00 83 1006.2
20260506192233 60 164 7.0 11.3 0.00 0.49 0.00 83 1006.1
20260506191733 60 180 4.3 12.2 0.00 0.49 0.00 83 1006.1
20260506191233 60 182 6.1 11.3 0.00 0.49 0.00 84 1006.0
20260506190736 60 180 3.5 7.0 0.00 0.49 0.00 85 1006.0
20260506190239 60 188 5.2 7.0 0.00 0.49 0.00 85 1005.8
20260506185733 60 167 6.1 14.8 0.00 0.49 0.00 85 1005.8
20260506185233 60 140 6.1 9.6 0.00 0.49 0.00 85 1005.7
20260506184736 60 174 8.7 10.4 0.00 0.49 0.00 86 1005.6
20260506184233 60 164 6.1 12.2 0.00 0.49 0.00 86 1005.7
20260506183733 60 144 5.2 14.8 0.00 0.49 0.00 86 1005.6
20260506183234 60 167 7.8 13.0 0.00 0.49 0.00 86 1005.5
20260506182739 60 182 1.7 13.0 0.00 0.49 0.00 87 1005.4
20260506182233 60 206 5.2 11.3 0.00 0.49 0.00 87 1005.3
20260506181733 60 142 5.2 11.3 0.00 0.49 0.00 87 1005.3
20260506181236 60 208 9.6 11.3 0.00 0.49 0.00 87 1005.2
20260506180733 60 118 7.0 10.4 0.00 0.49 0.00 87 1005.0
20260506180233 60 97 4.3 10.4 0.00 0.49 0.00 87 1004.9
20260506175736 60 187 7.8 9.6 0.00 0.49 0.00 87 1004.9
20260506175237 60 157 7.0 10.4 0.00 0.49 0.00 87 1004.9
20260506174733 60 168 3.5 15.6 0.00 0.49 0.00 87 1004.9
20260506174233 60 135 11.3 11.3 0.00 0.49 0.00 87 1004.8
20260506173733 60 146 7.0 13.9 0.00 0.49 0.00 86 1004.8
20260506173233 60 199 9.6 13.9 0.00 0.49 0.00 87 1004.9
20260506172733 60 163 4.3 11.3 0.00 0.49 0.00 86 1004.8
20260506172236 60 143 8.7 14.8 0.00 0.49 0.00 86 1004.8
20260506171739 60 154 11.3 13.9 0.00 0.49 0.00 85 1004.8
20260506171233 60 191 7.8 15.6 0.00 0.49 0.00 85 1004.7
20260506170739 61 209 10.4 17.4 0.00 0.49 0.00 84 1004.7
20260506170240 61 139 7.8 14.8 0.00 0.49 0.00 84 1004.7
20260506165733 61 189 7.8 15.6 0.00 0.49 0.00 84 1004.6
20260506165236 61 182 12.2 18.2 0.00 0.49 0.00 84 1004.7
20260506164734 61 185 13.0 16.5 0.00 0.49 0.00 84 1004.8
20260506164242 61 196 13.9 16.5 0.00 0.49 0.00 84 1004.9
20260506163733 61 212 11.3 15.6 0.00 0.49 0.00 84 1004.8
20260506163233 61 165 9.6 15.6 0.00 0.49 0.00 84 1004.7
20260506162734 61 130 6.1 16.5 0.00 0.49 0.00 85 1004.8
20260506162233 61 164 5.2 16.5 0.00 0.49 0.00 84 1004.7
20260506161733 61 198 10.4 15.6 0.00 0.49 0.00 84 1004.7
20260506161237 62 202 6.1 13.0 0.00 0.49 0.00 84 1004.7
20260506160736 62 187 6.1 13.9 0.00 0.49 0.00 84 1004.7
20260506160236 62 167 4.3 14.8 0.00 0.49 0.00 86 1004.7
20260506155733 61 99 5.2 14.8 0.00 0.49 0.00 86 1004.6
20260506155233 61 213 7.8 17.4 0.00 0.49 0.00 85 1004.6
20260506154733 62 208 4.3 14.8 0.00 0.49 0.00 85 1004.6
20260506154236 62 149 7.0 13.0 0.00 0.49 0.00 85 1004.7
20260506153733 62 154 5.2 13.9 0.00 0.49 0.00 85 1004.7
20260506153233 62 164 3.5 13.9 0.00 0.49 0.00 86 1004.6
20260506152733 62 164 8.7 13.0 0.00 0.49 0.00 85 1004.5
20260506152233 62 164 8.7 15.6 0.00 0.49 0.00 85 1004.6
20260506151739 62 237 3.5 15.6 0.00 0.49 0.00 85 1004.6
20260506151233 62 208 8.7 13.9 0.00 0.49 0.00 85 1004.6
20260506150733 62 154 5.2 115.6 0.00 0.49 0.00 85 1004.6
20260506150239 62 220 3.5 13.9 0.00 0.49 0.00 85 1004.5
20260506145733 62 196 6.1 13.9 0.00 0.49 0.00 83 1004.6
20260506145236 62 203 5.2 15.6 0.00 0.49 0.00 85 1004.5
20260506144736 62 210 11.3 13.9 0.00 0.49 0.00 87 1004.5
20260506144233 62 220 8.7 14.8 0.00 0.49 0.00 86 1004.6
20260506143739 62 201 12.2 15.6 0.00 0.49 0.00 85 1004.6
20260506143236 62 163 6.1 13.0 0.00 0.49 0.00 86 1004.6
20260506142733 62 150 9.6 13.9 0.00 0.49 0.00 85 1004.5
20260506142236 62 163 11.3 16.5 0.00 0.49 0.00 83 1004.5
20260506141733 62 163 7.0 13.9 0.00 0.49 0.00 84 1004.6
20260506141237 63 139 6.1 10.4 0.00 0.49 0.00 86 1004.6
20260506140733 62 198 13.0 15.6 0.00 0.49 0.00 86 1004.7
20260506140233 62 163 4.3 13.9 0.00 0.49 0.00 84 1004.7
20260506135736 63 199 7.8 13.9 0.00 0.49 0.00 83 1004.8
20260506135233 63 172 7.0 13.9 0.00 0.49 0.00 82 1004.8
20260506134737 63 144 3.5 12.2 0.00 0.49 0.00 84 1004.8
20260506134237 63 198 7.8 12.2 0.00 0.49 0.00 82 1004.8
20260506133736 63 160 5.2 13.9 0.00 0.49 0.00 83 1004.8
20260506133236 63 167 5.2 15.6 0.00 0.49 0.00 83 1004.8
20260506132740 62 187 7.0 13.0 0.00 0.49 0.00 82 1004.9
20260506132233 63 195 4.3 14.8 0.00 0.49 0.00 85 1004.8
20260506131736 63 208 7.8 12.2 0.00 0.49 0.00 84 1004.9
20260506131236 63 250 1.7 12.2 0.00 0.49 0.00 86 1004.8
20260506130739 63 203 6.1 11.3 0.00 0.49 0.00 86 1004.9
20260506130233 62 208 5.2 11.3 0.00 0.49 0.00 88 1004.8
20260506125733 63 202 12.2 13.9 0.00 0.49 0.00 86 1004.9
20260506125236 63 175 6.1 11.3 0.00 0.49 0.00 87 1004.8
20260506124734 63 196 6.1 11.3 0.00 0.49 0.00 89 1004.8
20260506124242 62 216 9.6 14.8 0.00 0.49 0.00 90 1004.8
20260506123742 62 160 7.0 14.8 0.00 0.49 0.00 90 1004.7
20260506123237 62 146 9.6 14.8 0.00 0.49 0.00 90 1004.6
20260506122734 62 185 9.6 14.8 0.00 0.49 0.00 89 1004.6
20260506122236 63 196 1.7 13.0 0.00 0.49 0.00 90 1004.6
20260506121733 62 196 7.0 13.9 0.00 0.49 0.00 90 1004.5
20260506121236 62 170 8.7 14.8 0.00 0.49 0.00 91 1004.5
20260506120736 62 156 5.2 16.5 0.00 0.49 0.00 90 1004.4
20260506120237 62 185 8.7 13.0 0.00 0.49 0.00 91 1004.5
20260506115736 62 206 7.8 12.2 0.00 0.49 0.00 91 1004.5
20260506115234 62 194 4.3 12.2 0.00 0.49 0.00 91 1004.5
20260506114736 62 201 11.3 13.0 0.00 0.49 0.00 91 1004.5
20260506114234 62 199 4.3 14.8 0.00 0.49 0.00 91 1004.5
20260506113737 61 198 11.3 14.8 0.00 0.49 0.00 91 1004.5
20260506113234 61 199 9.6 16.5 0.00 0.49 0.00 90 1004.5
20260506112740 62 213 10.4 16.5 0.00 0.49 0.00 90 1004.5
20260506112237 62 198 9.6 13.9 0.00 0.49 0.00 90 1004.4
20260506111734 62 163 7.0 15.6 0.00 0.49 0.00 90 1004.4
20260506111234 62 195 14.8 17.4 0.00 0.49 0.00 90 1004.5
20260506110734 62 181 11.3 12.2 0.00 0.49 0.00 90 1004.4
20260506110234 62 168 3.5 15.6 0.00 0.49 0.00 89 1004.5
20260506105734 62 209 7.8 14.8 0.00 0.49 0.00 90 1004.6
20260506105234 62 192 7.8 9.6 0.00 0.49 0.00 90 1004.5
20260506104737 62 175 2.6 13.9 0.00 0.49 0.00 90 1004.4
20260506104237 62 180 4.3 12.2 0.00 0.49 0.00 90 1004.5
20260506103737 62 181 11.3 14.8 0.00 0.49 0.00 90 1004.5
20260506103237 62 220 10.4 13.0 0.00 0.49 0.00 89 1004.5
20260506102734 62 191 5.2 13.0 0.00 0.49 0.00 89 1004.3
20260506102237 62 185 8.7 13.9 0.00 0.49 0.00 89 1004.4
20260506101736 62 174 8.7 12.2 0.00 0.49 0.00 89 1004.3
20260506101234 62 171 7.8 12.2 0.00 0.49 0.00 89 1004.3
20260506100735 62 137 7.8 8.7 0.00 0.49 0.00 90 1004.3
20260506100234 61 178 5.2 12.2 0.00 0.49 0.00 89 1004.4
20260506095743 62 157 4.3 10.4 0.00 0.49 0.00 90 1004.4
20260506095234 61 156 2.6 10.4 0.00 0.49 0.00 90 1004.4
20260506094740 61 158 5.2 9.6 0.00 0.50 0.00 90 1004.3
20260506094234 62 151 4.3 9.6 0.00 0.50 0.00 90 1004.3
20260506093740 62 219 3.5 11.3 0.00 0.50 0.00 90 1004.3
20260506093234 62 195 9.6 11.3 0.00 0.50 0.00 90 1004.3
20260506092740 61 198 5.2 8.7 0.00 0.50 0.00 91 1004.2
20260506092234 61 192 7.8 11.3 0.00 0.50 0.00 91 1004.2
20260506091740 61 194 9.6 9.6 0.00 0.50 0.00 91 1004.2
20260506091238 61 198 2.6 8.7 0.00 0.50 0.00 91 1004.2
20260506090737 61 222 8.7 8.7 0.00 0.50 0.00 91 1004.2
20260506090234 61 225 7.8 7.8 0.00 0.50 0.00 91 1004.1
20260506085734 60 192 4.3 10.4 0.00 0.50 0.00 91 1004.1
20260506085234 60 184 5.2 11.3 0.00 0.50 0.00 92 1004.1
20260506084737 60 229 2.6 7.8 0.00 0.50 0.00 93 1003.9
20260506084237 60 191 5.2 9.6 0.00 0.50 0.00 93 1003.8
20260506083734 60 215 6.1 10.4 0.00 0.50 0.00 93 1003.8
20260506083237 60 185 5.2 11.3 0.00 0.50 0.00 94 1003.8
20260506082734 60 189 6.1 11.3 0.00 0.50 0.00 94 1003.7
20260506082237 60 192 7.0 10.4 0.00 0.50 0.00 95 1003.7
20260506081737 60 174 4.3 9.6 0.00 0.50 0.00 95 1003.6
20260506081237 60 172 9.6 13.0 0.00 0.50 0.00 95 1003.5
20260506080740 61 150 5.2 16.5 0.00 0.50 0.00 95 1003.6
20260506080237 61 209 11.3 13.9 0.00 0.50 0.00 95 1003.6
20260506073237 61 206 17.4 20.0 0.03 0.50 0.00 96 1003.6
20260506072734 61 164 6.1 18.2 0.04 0.50 0.00 96 1003.3
20260506072238 61 184 7.8 21.7 0.04 0.50 0.00 96 1003.2
20260506071735 61 165 16.5 21.7 0.04 0.50 0.00 96 1003.2
20260506071237 61 194 19.1 23.5 0.04 0.50 0.00 96 1003.2
20260506070743 61 180 8.7 20.9 0.04 0.50 0.00 96 1003.0
20260506070240 61 153 9.6 22.6 0.04 0.50 0.00 95 1002.9
20260506062237 60 154 11.3 23.5 0.00 0.48 0.00 93 1002.5
20260506061734 60 150 11.3 17.4 0.00 0.48 0.00 93 1002.7
20260506061243 60 119 7.8 14.8 0.00 0.51 0.00 92 1002.6
20260506060737 60 194 10.4 19.1 0.00 0.51 0.00 92 1002.7
20260506060234 60 129 5.2 13.0 0.00 0.53 0.00 92 1002.7
20260506051234 57 154 0.9 4.3 0.01 0.85 0.00 93 1003.2
20260506050734 57 181 0.0 2.6 0.02 0.85 0.00 93 1003.1
20260506050235 57 161 0.9 6.1 0.03 0.85 0.00 94 1003.1
20260506044734 56 163 0.0 1.7 0.03 0.88 0.00 93 1003.0
20260506044234 56 157 1.7 3.5 0.03 0.90 0.00 93 1003.0
20260506043734 56 246 0.0 2.6 0.03 0.93 0.00 92 1003.2
20260506043234 56 129 0.9 2.6 0.03 0.97 0.00 92 1003.4
20260506042734 56 71 0.0 1.7 0.03 1.00 0.00 92 1003.3
20260506042234 56 71 0.9 1.7 0.03 1.03 0.00 92 1003.5
20260506041734 56 88 0.0 2.6 0.03 1.07 0.00 91 1003.6
20260506041234 56 73 0.9 0.9 0.03 1.10 0.00 91 1003.8
20260506040737 56 82 0.9 2.6 0.02 1.11 0.00 91 1004.2
20260506040234 56 82 1.7 2.6 0.01 1.15 0.00 92 1003.9
20260506035737 56 130 0.0 2.6 0.00 1.18 0.00 91 1003.9
20260506035237 56 129 0.0 4.3 0.00 1.18 0.00 91 1003.9
20260506034734 56 323 0.9 2.6 0.00 1.19 0.00 91 1003.9
20260506034234 56 323 0.0 2.6 0.00 1.22 0.00 91 1003.7
20260506033738 56 316 0.0 2.6 0.00 1.25 0.00 91 1003.6
20260506033238 56 319 0.0 3.5 0.00 1.25 0.00 90 1003.5
20260506032738 56 315 0.9 5.2 0.00 1.26 0.00 90 1003.5
20260506032241 56 338 2.6 7.8 0.00 1.29 0.00 90 1003.4
20260506031734 56 347 2.6 5.2 0.01 1.32 0.00 90 1003.5
20260506031238 56 39 0.9 9.6 0.03 1.34 0.00 90 1003.6
20260506030744 55 21 3.5 6.1 0.03 1.36 0.00 91 1003.7
20260506030235 56 357 1.7 5.2 0.04 1.37 0.00 91 1003.7
20260506025735 55 113 0.9 4.3 0.05 1.37 0.00 92 1003.9
20260506025235 56 208 1.7 6.1 0.07 1.37 0.00 92 1004.0
20260506024738 56 216 2.6 6.1 0.09 1.38 0.00 93 1004.2
20260506024241 55 111 1.7 6.1 0.12 1.39 0.00 93 1004.4
20260506023738 55 320 0.9 3.5 0.14 1.40 0.00 93 1004.6
20260506023241 55 154 0.0 2.6 0.16 1.40 0.00 93 1004.7
20260506022741 55 142 0.9 5.2 0.18 1.41 0.00 93 1004.8
20260506022235 55 255 0.0 3.5 0.18 1.43 0.00 94 1004.8
20260506021735 55 161 0.0 5.2 0.21 1.43 0.00 94 1004.9
20260506021235 55 184 1.7 7.0 0.25 1.42 0.00 94 1004.9
20260506020735 55 282 4.3 6.1 0.25 1.42 0.00 94 1005.1
20260506020234 55 50 2.6 8.7 0.25 1.41 0.00 94 1004.9
20260506015734 55 358 7.0 11.3 0.24 1.41 0.00 94 1004.9
20260506015234 55 350 6.1 7.0 0.23 1.40 0.00 94 1005.2
20260506014731 55 343 3.5 8.7 0.22 1.38 0.00 94 1005.4
20260506014231 56 1 7.0 9.6 0.18 1.36 0.00 92 1005.5
20260506013732 58 355 3.5 6.1 0.16 1.34 0.00 94 1005.5
20260506013240 58 341 4.3 4.3 0.14 1.32 0.00 94 1005.8
20260506012737 58 336 2.6 3.5 0.12 1.31 0.00 94 1005.8
20260506012238 58 347 2.6 3.5 0.11 1.30 0.00 94 1005.7
20260506011734 58 5 0.0 2.6 0.08 1.28 0.00 94 1005.6
20260506011231 58 4 1.7 5.2 0.03 1.22 0.00 94 1005.4
20260506010732 58 355 1.7 4.3 0.03 1.22 0.00 93 1005.1
20260506010237 58 227 1.7 2.6 0.03 1.23 0.00 93 1005.2
20260506005737 58 149 1.7 2.6 0.03 1.24 0.00 93 1005.2
20260506005241 58 149 0.9 3.5 0.01 1.22 0.00 93 1005.1
20260506004735 59 151 3.5 7.0 0.01 1.23 0.00 93 1005.3
20260506004232 59 132 5.2 11.3 0.01 1.23 0.00 93 1005.5
20260506003738 59 184 5.2 7.0 0.01 1.23 0.00 93 1005.6
20260506003235 59 94 2.6 9.6 0.01 1.23 0.00 93 1005.4
20260506002731 59 130 3.5 3.5 0.01 1.23 0.00 94 1005.3
20260506002235 59 137 0.0 5.2 0.01 1.23 0.00 94 1005.2
20260506001738 59 120 0.0 1.7 0.01 1.23 0.00 94 1005.1
20260506001232 60 129 0.0 0.9 0.00 1.22 0.00 94 1005.4
20260506000732 60 133 0.0 1.7 0.00 1.22 0.00 94 1005.3
20260506000233 60 133 0.9 2.6 0.00 1.22 0.00 94 1005.4
20260505235736 60 133 0.0 2.6 0.00 1.22 0.00 94 1005.6
20260505235241 60 136 0.0 0.0 0.00 1.22 0.00 94 1005.5
20260505234732 60 136 0.0 0.9 0.00 1.22 0.00 94 1005.7
20260505234232 60 136 0.0 2.6 0.00 1.22 0.00 95 1005.9
20260505233732 60 136 0.0 5.2 0.00 1.22 0.00 95 1006.1
20260505233232 60 156 1.7 5.2 0.00 1.22 0.00 94 1006.2
20260505232735 60 150 0.9 4.3 0.00 1.22 0.00 94 1006.2
20260505232232 60 163 2.6 7.0 0.00 1.22 0.00 94 1006.4
20260505231738 60 170 1.7 7.0 0.03 1.22 0.00 94 1006.4
20260505231232 60 196 3.5 7.0 0.05 1.22 0.00 94 1006.5
20260505230732 60 202 0.9 7.0 0.07 1.22 0.00 94 1006.6
20260505230235 60 220 1.7 3.5 0.07 1.22 0.00 94 1006.6
20260505225735 60 227 3.5 4.3 0.07 1.22 0.00 94 1006.6
20260505225232 60 225 1.7 5.2 0.07 1.22 0.00 94 1006.5
20260505224732 60 222 0.9 4.3 0.07 1.22 0.00 93 1006.6
20260505224241 60 229 1.7 7.8 0.06 1.21 0.00 93 1006.8
20260505223741 60 229 3.5 6.1 0.06 1.21 0.00 93 1006.8
20260505223233 60 203 2.6 7.0 0.06 1.21 0.00 92 1006.8
20260505222732 61 177 1.7 15.6 0.06 1.21 0.00 92 1006.9
20260505222235 61 198 7.8 9.6 0.06 1.21 0.00 91 1006.9
20260505221732 61 279 1.7 4.3 0.03 1.18 0.00 89 1007.0
20260505221235 61 171 0.0 1.7 0.01 1.16 0.00 89 1006.9
20260505220734 61 171 0.0 1.7 0.00 1.14 0.00 89 1006.9
20260505220238 61 171 0.0 3.5 0.00 1.14 0.00 89 1006.9
20260505215732 61 184 0.9 2.6 0.00 1.14 0.00 90 1006.8
20260505215232 61 129 0.9 1.7 0.00 1.14 0.00 89 1007.0
20260505214738 61 129 0.9 1.7 0.00 1.14 0.00 90 1006.9
20260505214233 61 130 0.9 9.6 0.00 1.14 0.00 90 1007.0
20260505213738 61 172 3.5 7.0 0.00 1.14 0.00 89 1007.1
20260505213235 61 157 0.9 7.8 0.00 1.14 0.00 89 1007.2
20260505212738 61 175 2.6 3.5 0.00 1.14 0.00 89 1007.2
20260505212232 61 147 0.0 4.3 0.00 1.14 0.00 90 1007.2
20260505211732 61 135 0.0 4.3 0.00 1.14 0.00 90 1007.3
20260505211232 61 135 0.9 5.2 0.00 1.14 0.00 90 1007.2
20260505210735 61 161 5.2 6.1 0.00 1.14 0.00 90 1007.3
20260505210232 61 126 2.6 5.2 0.00 1.14 0.00 90 1007.4
20260505205735 61 135 4.3 7.8 0.00 1.14 0.00 90 1007.4
20260505205239 61 135 1.7 8.7 0.00 1.14 0.00 91 1007.3
20260505204735 61 174 4.3 7.8 0.00 1.14 0.00 91 1007.4
20260505204232 61 137 5.2 8.7 0.00 1.14 0.00 91 1007.5